Location: ???????
(55.9142°N, 37.8256°E)
Time: 04:54:37
(UTC+00:00)

CZ-4 R/B - Pass Details

Date: 14 April 2024
Orbit: 677 x 749 km, 98.6° (Epoch: 23 May)

Event Time Altitude Azimuth Distance (km) Brightness Sun altitude
Rises 01:21:35 0° 15° (NNE) 3,141 8.0 -8.9°
Reaches altitude 10° 01:23:53 10° 13° (NNE) 2,205 7.1 -8.6°
Maximum altitude 01:28:41 68° 291° (WNW) 758 3.9 -8.0°
Drops below altitude 10° 01:33:20 10° 209° (SSW) 2,146 5.8 -7.5°
Enters shadow 01:34:35 - 208° (SSW) 2,648 6.3 -7.3°
